Location: Hains Lake
(37.8540°N, 99.8578°W)
Time: 03:13:18
(UTC+00:00)

Cosmos 405 - Pass Details

Date: 11 December 2019
Orbit: 451 x 467 km, 81.3° (Epoch: 19 January)

Event Time Altitude Azimuth Distance (km) Brightness Sun altitude
Rises 12:37:14 0° 359° (N) 2,504 6.5 -13.0°
Reaches altitude 10° 12:39:26 10° 8° (N) 1,621 5.6 -12.6°
Maximum altitude 12:42:45 38° 78° (ENE) 722 4.5 -12.0°
Drops below altitude 10° 12:46:03 10° 148° (SSE) 1,600 6.5 -11.4°
Sets 12:48:12 0° 156° (SSE) 2,466 7.4 -11.0°
